Location: B?lite?ti
(46.2833°N, 22.7333°E)
Time: 04:20:55
(UTC+00:00)

Cosmos 2026 Rocket - Pass Details

Date: 24 January 2021
Orbit: 940 x 1000 km, 82.9° (Epoch: 26 February)

Event Time Altitude Azimuth Distance (km) Brightness Sun altitude
Rises 17:36:30 0° 195° (SSW) 3,606 7.2 -23.0°
Reaches altitude 10° 17:38:59 10° 198° (SSW) 2,671 6.5 -23.5°
Maximum altitude 17:45:03 67° 281° (W) 1,040 4.3 -24.5°
Drops below altitude 10° 17:51:17 10° 4° (N) 2,730 6.3 -25.6°
Sets 17:53:51 0° 7° (N) 3,690 7.0 -26.0°
